Other Public Products
Issued by NWS Grand Forks, ND

Home | Current Version | Previous Version | Graphics & Text | Print | Product List | Glossary On
Versions: 1 2 3 4 5 6 7 8 9 10 11 12 13 14 15 16 17 18 19 20 21 22 23 24 25 26 27 28 29 30 31 32 33 34 35 36 37 38 39 40 41 42 43 44 45 46 47 48 49 50
000
FPUS83 KFGF 210931
OPUFGF
PRAIRIE TO PINES WEATHER ROUNDUP
NATIONAL WEATHER SERVICE EASTERN NORTH DAKOTA/GRAND FORKS ND
400 AM CDT MON AUG 21 2017

 **SATELLITE DATA USED TO AUGMENT SKY COVER AT AUTOMATED STATIONS**
 *****  WEATHER ACROSS EASTERN NORTH DAKOTA  *****

CITY           SKY/WX    TMP DP  RH WIND       PRES   REMARKS
GRAND FORKS    FAIR      53  51  93 S5        29.99S
GRAND FORKS AF FAIR      51  49  92 CALM      29.99F
GRAND CITY NWS NOT AVBL
BUXTON           N/A     43  52 100 CALM        N/A
DEVILS LAKE    MOCLDY    63  54  72 CALM      29.99F
FARGO          FAIR      60  55  83 S3        30.00F
WAHPETON ARPT  FAIR      55  54  94 CALM      30.02R
$$

 *****  WEATHER ACROSS CENTRAL AND WESTERN NORTH DAKOTA  *****

CITY           SKY/WX    TMP DP  RH WIND       PRES   REMARKS
JAMESTOWN      MOCLDY    56  54  93 NE6       30.00F
BISMARCK       CLOUDY    58  48  69 NW23G32   30.05R
MINOT          CLOUDY    60  51  72 VRB6      29.97R
MINOT AFB      CLOUDY    62  47  58 N7        29.98R
GARRISON         N/A     60  50  69 S13       29.97F
WILLISTON      FAIR      60  46  59 S3        29.95F
DICKINSON      MOCLDY    59  46  62 SE12      29.98F
HETTINGER      FAIR      52  48  86 NW6       29.98S
$$

 *****  OTHER OBSERVATIONS NORTHEAST NORTH DAKOTA  *****

CITY           SKY/WX    TMP DP  RH WIND       PRES   REMARKS
WALHALLA       FAIR      55  55 100 CALM      29.98R
LANGDON        FAIR      54  54 100 S3        30.01R
CAVALIER       PTSUNNY   55  48  76 CALM      29.97S
GRAFTON        FAIR      52  52 100 S3        30.00F
CANDO          PTSUNNY   54  54 100 NW8       30.03R
FORT TOTTEN      N/A     57  49  76 SE3       29.95S
ROLLA          CLOUDY    57  52  82 CALM      30.02F
RUGBY          PTSUNNY   55  54  94 N8        30.00R
 ***** THE ABOVE OBSERVATIONS ARE NON NWS ARE NOT QUALITY
        CONTROLLED AND MAY MIS-REPORT RAIN FOR SNOW...
$$

 *****  OTHER OBSERVATIONS SOUTHEAST NORTH DAKOTA *****

CITY           SKY/WX    TMP DP  RH WIND       PRES   REMARKS
COOPERSTOWN    FAIR      55  54  94 S6        30.01F
VALLEY CITY      N/A     57  57 100 CALM      30.02S
OAKES          NOT AVBL
GWINNER        SUNNY     55  54  94 CALM      30.01S
SHEYENNE NWR     N/A     57  55  93 CALM      29.95S
BUFFALO          N/A     58  53  84 S2          N/A
WYNDMERE       NOT AVBL
 ***** THE ABOVE OBSERVATIONS ARE NON NWS ARE NOT QUALITY
       CONTROLLED AND MAY MIS-REPORT RAIN FOR SNOW...
$$

  *****  WEATHER ACROSS NORTHERN MINNESOTA  *****

CITY           SKY/WX    TMP DP  RH WIND       PRES   REMARKS
FLAG ISLAND    LGT RAIN  63  46  55 SW3       29.96F
WARROAD        FAIR      50  46  87 CALM      30.00S
ROSEAU         FAIR      48  43  81 S3        30.00S
HALLOCK        FAIR      52  46  82 SE6       29.98F
THF RVR FALLS  FAIR      51  46  83 SE5       30.03S
HALSTAD          N/A     55  54  94 S3          N/A
FOSSTON        FAIR      48  46  93 CALM      30.02S
BAUDETTE       FAIR      48  46  93 SE3       30.00F
WASKISH        FAIR      46  45  93 CALM      30.01F
CROOKSTON      FAIR      55  48  76 SE3       30.00F
$$
  *****  WEATHER ACROSS CENTRAL AND WEST MINNESOTA  *****

CITY           SKY/WX    TMP DP  RH WIND       PRES   REMARKS
BEMIDJI        FAIR      45  43  93 W3        30.02S
PARK RAPIDS    FAIR      57  53  86 CALM      30.01F
WADENA         FAIR      55  55 100 CALM      30.03R
DETROIT LAKES  FAIR      59  55  88 CALM      30.03S
MOORHEAD       FAIR      57  55  94 CALM      30.01F
FERGUS FALLS   FAIR      57  55  94 NE5       30.02S
ELBOW LAKE     FAIR      55  54  95 SE3       30.03R
MORRIS MN      FAIR      55  54  94 SE5       30.02R
STAPLES        FAIR      55  54  94 CALM      30.03F
WHEATON        FAIR      54  52  94 CALM      30.05R
$$
  *****  WEATHER ELSEWHERE ACROSS MINNESOTA  *****

CITY           SKY/WX    TMP DP  RH WIND       PRES   REMARKS
DULUTH         FAIR      52  51  97 CALM      30.04R
INTRNTL FALLS  FAIR      43  41  93 CALM      30.02S
ELY            FAIR      46  45  93 CALM      30.01F
CLOQUET        FAIR      48  46  93 NW5       30.04R
BRAINERD       FAIR      55  54  96 CALM      30.02F
HIBBING        FAIR      44  44 100 CALM      30.02F FOG
ALEXANDRIA     FAIR      57  54  89 E5        30.04S
SAINT CLOUD    FAIR      55  55 100 SE3       30.04R
MINNEAPOLIS    CLOUDY    69  58  67 E6        30.03R
$$

  *****  WEATHER ACROSS SOUTH DAKOTA  *****

CITY           SKY/WX    TMP DP  RH WIND       PRES   REMARKS
SIOUX FALLS    MOCLDY    67  64  90 E8        29.98F
BROOKINGS      CLOUDY    63  59  88 E7        30.01S
WATERTOWN      FAIR      59  54  83 E6        30.01S
HURON          FAIR      58  55  90 CALM      29.99R
SISSETON         N/A     54  52  93 CALM      30.01R
ABERDEEN       FAIR      54  53  97 CALM      30.00F
MITCHELL       FAIR      60  58  92 N6        29.98R
PIERRE         FAIR      61  54  77 NE6       29.96F
MOBRIDGE       LGT RAIN  58  54  86 SE20      29.93F
RAPID CITY     MOCLDY    58  52  80 NE9       29.98S
$$

  *****  SOME WEATHER IN NEARBY STATES *****

CITY           SKY/WX    TMP DP  RH WIND       PRES   REMARKS
GLASGOW MT     CLOUDY    63  34  33 NW5       29.99R
GREAT FALLS MT FAIR      51  30  44 SW7       30.11S
CHEYENNE WY    FAIR      56  43  61 W10       30.16S
SCOTTSBLUFF NE FAIR      65  63  93 E6        30.02F
OMAHA NE       MOCLDY    71  62  73 E20G30    30.01S
DES MOINES IA  TSTM      68  66  93 N12       30.05F
DAVENPORT IA   FOG       64  63  96 CALM      30.05S VSB 1
CHICAGO IL     FAIR      73  68  84 S9        30.01F
EAU CLAIRE WI  CLOUDY    67  63  87 N5        30.03R
LA CROSSE WI   MOCLDY    70  67  90 CALM      30.02R
$$

  *****  SOME NATIONAL WEATHER *****

CITY           SKY/WX    TMP DP  RH WIND       PRES   REMARKS
LA GUARDIA NY  FAIR      76  62  62 W3        30.16R
RALEIGH NC     FAIR      73  71  93 CALM      30.18S
ATLANTA GA     FAIR      77  70  79 SE3       30.16S
NEW ORLEANS LA FAIR      81  78  91 CALM      30.06S
OKLAHOMA CITY  FAIR      74  71  91 S7        30.03F
ALBUQUERQUE NM LGT RAIN  61  60  97 W12       30.21F
SALT LAKE CITY FAIR      75  42  30 SE8       30.05R
LOS ANGELES CA MOCLDY    67  62  84 NW3       29.96S
BOISE ID       FAIR      63  37  38 S6        30.03R
SEATTLE WA     FAIR      63  55  75 NE12      30.13S
$$

*** WEATHER ACROSS MANITOBA...SASKATCHEWAN AND ONTARIO ***
                ***ONTARIO***

CITY           SKY/WX    TMP DP  RH WIND       PRES   REMARKS
GERALDTON      MOCLDY    55  55 100 W2        29.94R
THUNDER BAY    CLEAR     52  50  93 SW7       29.99R
SIOUX LOOKOUT  CLEAR     50  46  87 SW6       29.97F
TORONTO        MOCLDY    66  57  72 W3        30.09S
BIG TROUT LK   CLEAR     59  48  67 W9G17     29.73S
PICKLE LAKE    NOT AVBL
DRYDEN         CLEAR     55  48  76 SW7       29.98F
KENORA         PTCLDY    59  48  67 SW6       29.98F
$$
                *** MANITOBA***

CITY           SKY/WX    TMP DP  RH WIND       PRES   REMARKS
BRANDON        LGT RAIN  59  50  72 W5        29.98F
DAUPHIN        CLOUDY    55  52  88 S5        29.95F
ISLAND LAKE    PTCLDY    59  50  72 SW6       29.78
PILOT MOUND      N/A     54  48  82 W2          N/A
THE PAS        PTCLDY    54  46  76 W8        29.84S
THOMPSON       PTCLDY    45  43  93 VRB3      29.72F
WINNIPEG       MOCLDY    59  46  63 CALM      29.95F
LYNN LAKE      PTCLDY    45  45 100 MISG      29.74S
CHURCHILL      CLOUDY    50  50 100 NE13      29.63R FOG
GILLAM         CLOUDY    61  50  67 W18G25    29.63R
$$
                ***SASKATCHEWAN***

CITY           SKY/WX    TMP DP  RH WIND       PRES   REMARKS
ESTEVAN        CLOUDY    61  45  55 S8        29.93F
KINDERSLEY     MOCLDY    52  45  76 W7        30.07R
LLOYDMINSTER   CLEAR     45  43  93 W12       30.03S
PRINCE ALBERT  PTCLDY    48  43  81 W8        29.96R
REGINA         MOCLDY    59  41  51 N8        29.96R
YORKTON        LGT RAIN  55  50  82 S5        29.94F



USA.gov is the U.S. government's official web portal to all federal, state and local government web resources and services.